FLOCK 2K-48 (42855 NORAD) Tracking and Keplerian Element Data

This shows tracking and keplerian element data for the satellite.

Feedback or suggestion? Click here.




ElementValue
Catalog42855
NameFLOCK 2K-48
Epoch Orbit15569
Epoch Day114.70315773
Epoch Year2020
RAAN345.8358
Inclination96.8994
Eccentricity0.0009058
Argument of Perigee160.1475
Mean Anonmoly200.0128
Mean Motion15.42169952
Decay Rate6.012E-05
L11 42855U 17042AG 20114.70315773 .00006012 00000-0 14193-3 0 9999
L22 42855 96.8994 345.8358 0009058 160.1475 200.0128 15.42169952155696



Live tracking and technical data element details for FLOCK 2K-48 (NORAD 42855). FLOCK 2K-48 can be tracked NOW for your location showing map with azimuth and elevation plus other details from your city location.







IsCatalogInMostPopularTable: catalog: 42855, numindb: 716
Update: records affected: 1



GetName: 42855 FLOCK 2K-48

Hit Count: updated at: Sat, 07 Mar 2026 07:10:41 GMT